Blair, NE

3:13 AM CST on December 15, 2017 (GMT -0600)
Blair Municipal

Weather History for KBTA - October, 2012

Change the Weather History Date:

Friday, October 19, 2012

  Actual Average (KOMA) Record (KOMA)
Temperature  
Mean Temperature 44 °F -  
Max Temperature 46 °F 62 °F 87 °F (2003)
Min Temperature 41 °F 36 °F 13 °F (1972)
Degree Days  
Heating Degree Days 21    
Moisture  
Dew Point 40 °F    
Average Humidity 83    
Maximum Humidity 91    
Minimum Humidity 77    
Precipitation  
Precipitation 0.02 in - - ()
Sea Level Pressure  
Sea Level Pressure 29.73 in    
Wind  
Wind Speed 19 mph (NW)    
Max Wind Speed 28 mph    
Max Gust Speed 39 mph    
Visibility 10 miles    
Events Rain    
Averages and records for this station are not official NWS values.
T = Trace of Precipitation, MM = Missing Value Source: NWS Daily Summary

Daily Weather History Graph

Daily Weather History Graph

Search for Another Location

Airport or City:

Trip Planner

Search our weather history database for the weather conditions in past years. The results will help you decide how hot, cold, wet, or windy it might be!

Date:

Astronomy

Oct. 19, 2012 Rise Set
Actual Time 7:41 AM CDT 6:36 PM CDT
Civil Twilight 7:13 AM CDT 7:04 PM CDT
Nautical Twilight 6:41 AM CDT 7:36 PM CDT
Astronomical Twilight 6:09 AM CDT 8:08 PM CDT
Moon 12:27 PM CDT (10/19) 10:13 PM CDT (10/19)
Length of Visible Light 11h 51m
Length of Day
10h 55m
Waxing Crescent, 24% of the Moon is Illuminated
Oct 19
Waxing Crescent
Oct 21
First Quarter
Oct 29
Full
Nov 6
Last Quarter
Nov 13
New

Hourly Weather History & Observations

Time (CDT) Temp. Windchill Dew Point Humidity Pressure Visibility Wind Dir Wind Speed Gust Speed Precip Events Conditions
1:35 AM 43.7 °F 34.5 °F 39.7 °F 86% 29.60 in 10.0 mi NW 24.2 mph 39.1 mph 0.01 in Rain Light Rain
1:55 AM 43.7 °F 35.4 °F 39.7 °F 86% 29.60 in 10.0 mi NW 19.6 mph 29.9 mph 0.01 in Rain Light Rain
2:15 AM 43.7 °F 34.3 °F 39.7 °F 86% 29.60 in 10.0 mi NW 25.3 mph 33.4 mph 0.01 in Rain Light Rain
2:35 AM 43.7 °F 35.4 °F 39.6 °F 85% 29.61 in 10.0 mi NW 19.6 mph 32.2 mph 0.01 in   Light Drizzle
2:55 AM 43.9 °F 34.1 °F 39.4 °F 84% 29.61 in 10.0 mi NW 27.6 mph 34.5 mph 0.01 in Rain Light Rain
3:15 AM 43.9 °F 35.9 °F 39.4 °F 84% 29.61 in 10.0 mi NW 18.4 mph 32.2 mph N/A Rain Light Rain
3:35 AM 43.9 °F 34.5 °F 39.7 °F 85% 29.61 in 10.0 mi NW 25.3 mph 34.5 mph N/A Rain Light Rain
3:55 AM 43.9 °F 35.2 °F 39.4 °F 84% 29.61 in 10.0 mi NW 21.9 mph 35.7 mph N/A Rain Light Rain
4:15 AM 43.7 °F 34.5 °F 39.4 °F 85% 29.62 in 10.0 mi NW 24.2 mph 33.4 mph N/A Rain Light Rain
4:35 AM 43.7 °F 34.7 °F 39.4 °F 85% 29.62 in 10.0 mi NW 23.0 mph 33.4 mph N/A Rain Rain
4:55 AM 43.9 °F 34.7 °F 39.6 °F 85% 29.62 in 10.0 mi NW 24.2 mph 33.4 mph N/A   Light Drizzle
5:15 AM 44.1 °F 36.2 °F 39.6 °F 84% 29.64 in 10.0 mi NW 18.4 mph 29.9 mph N/A Rain Light Rain
5:35 AM 43.7 °F 35.2 °F 40.1 °F 87% 29.64 in 10.0 mi NW 20.7 mph 34.5 mph N/A Rain Light Rain
5:55 AM 43.7 °F 35.0 °F 40.3 °F 88% 29.65 in 10.0 mi NW 21.9 mph 28.8 mph N/A   Light Drizzle
6:15 AM 43.7 °F 35.2 °F 40.3 °F 88% 29.65 in 10.0 mi NW 20.7 mph 27.6 mph N/A   Overcast
6:35 AM 43.7 °F 34.3 °F 40.1 °F 87% 29.66 in 10.0 mi NW 25.3 mph 34.5 mph N/A   Overcast
6:55 AM 43.7 °F 34.1 °F 39.2 °F 84% 29.67 in 10.0 mi NW 26.5 mph 36.8 mph N/A   Overcast
7:15 AM 43.3 °F 34.2 °F 39.7 °F 87% 29.67 in 5.0 mi NW 23.0 mph 31.1 mph N/A   Overcast
7:35 AM 43.2 °F 33.4 °F 40.3 °F 90% 29.67 in 5.0 mi NW 26.5 mph 32.2 mph N/A Rain Light Rain
7:55 AM 43.0 °F 34.2 °F 40.5 °F 91% 29.68 in 3.0 mi NW 20.7 mph 27.6 mph N/A   Drizzle
8:15 AM 43.0 °F 34.2 °F 40.3 °F 90% 29.69 in 5.0 mi NW 20.7 mph 32.2 mph N/A   Overcast
8:35 AM 43.0 °F 34.5 °F 40.3 °F 90% 29.70 in 3.0 mi NW 19.6 mph 31.1 mph N/A Rain Light Rain
8:55 AM 43.0 °F 34.8 °F 40.5 °F 91% 29.71 in 7.0 mi NW 18.4 mph 28.8 mph N/A   Overcast
9:15 AM 43.2 °F 34.5 °F 40.1 °F 89% 29.72 in 10.0 mi NW 20.7 mph 31.1 mph N/A   Overcast
9:35 AM 43.5 °F 34.7 °F 40.1 °F 88% 29.73 in 10.0 mi NW 21.9 mph 28.8 mph N/A   Overcast
9:55 AM 43.7 °F 34.5 °F 40.1 °F 87% 29.73 in 10.0 mi NW 24.2 mph 32.2 mph N/A   Overcast
10:15 AM 44.6 °F 36.4 °F 40.3 °F 85% 29.74 in 10.0 mi NW 20.7 mph 27.6 mph N/A   Overcast
10:35 AM 44.6 °F 36.4 °F 39.9 °F 84% 29.75 in 10.0 mi NW 20.7 mph 32.2 mph N/A   Overcast
10:55 AM 44.6 °F 36.1 °F 39.7 °F 83% 29.75 in 10.0 mi NW 21.9 mph 33.4 mph N/A   Overcast
11:15 AM 44.8 °F 36.9 °F 40.1 °F 84% 29.76 in 10.0 mi NW 19.6 mph 28.8 mph N/A   Overcast
11:35 AM 44.8 °F 36.9 °F 39.7 °F 82% 29.77 in 10.0 mi NW 19.6 mph 29.9 mph N/A   Overcast
11:55 AM 45.1 °F 37.6 °F 39.7 °F 81% 29.77 in 10.0 mi NW 18.4 mph 33.4 mph N/A   Overcast
12:15 PM 45.5 °F 38.1 °F 40.1 °F 81% 29.78 in 10.0 mi NW 18.4 mph 29.9 mph N/A   Overcast
12:35 PM 45.0 °F 37.4 °F 39.7 °F 82% 29.78 in 10.0 mi NW 18.4 mph 31.1 mph N/A   Overcast
12:55 PM 44.6 °F 36.4 °F 40.1 °F 84% 29.78 in 10.0 mi NW 20.7 mph 25.3 mph N/A   Overcast
1:15 PM 45.0 °F 36.9 °F 39.7 °F 82% 29.77 in 10.0 mi NW 20.7 mph 28.8 mph N/A   Overcast
1:35 PM 45.5 °F 38.6 °F 39.6 °F 80% 29.77 in 10.0 mi WNW 16.1 mph 28.8 mph N/A   Overcast
1:55 PM 45.7 °F 39.5 °F 39.7 °F 80% 29.78 in 10.0 mi NW 13.8 mph 24.2 mph N/A   Overcast
2:15 PM 45.5 °F 38.9 °F 39.4 °F 79% 29.77 in 10.0 mi NW 15.0 mph 25.3 mph N/A   Overcast
2:35 PM 45.5 °F 38.9 °F 39.4 °F 79% 29.78 in 10.0 mi WNW 15.0 mph 23.0 mph N/A   Overcast
2:55 PM 45.7 °F 38.8 °F 39.4 °F 79% 29.77 in 10.0 mi NW 16.1 mph 23.0 mph N/A   Overcast
3:15 PM 46.0 °F 39.9 °F 39.4 °F 78% 29.78 in 10.0 mi NW 13.8 mph 21.9 mph N/A   Overcast
3:35 PM 46.4 °F 40.4 °F 39.6 °F 77% 29.78 in 10.0 mi NW 13.8 mph 19.6 mph N/A   Overcast
3:55 PM 46.4 °F 40.1 °F 40.1 °F 79% 29.78 in 10.0 mi NW 15.0 mph 20.7 mph N/A   Overcast
4:15 PM 46.4 °F 41.1 °F 39.9 °F 78% 29.78 in 10.0 mi WNW 11.5 mph 21.9 mph N/A   Overcast
4:35 PM 45.9 °F 40.4 °F 39.6 °F 79% 29.78 in 10.0 mi NW 11.5 mph 19.6 mph N/A   Overcast
4:55 PM 46.2 °F 41.7 °F 40.1 °F 79% 29.78 in 10.0 mi NW 9.2 mph - N/A   Overcast
5:15 PM 46.4 °F 41.5 °F 40.1 °F 79% 29.78 in 10.0 mi NW 10.4 mph - N/A   Overcast
5:35 PM 46.6 °F - 40.1 °F 78% 29.78 in 10.0 mi NW 11.5 mph 16.1 mph N/A   Overcast
5:55 PM 46.6 °F - 40.1 °F 78% 29.78 in 10.0 mi NW 11.5 mph 17.3 mph N/A   Overcast
6:15 PM 46.4 °F 41.9 °F 40.1 °F 79% 29.79 in 10.0 mi WNW 9.2 mph - N/A   Overcast
6:35 PM 46.4 °F 41.5 °F 40.3 °F 79% 29.79 in 10.0 mi NW 10.4 mph - N/A   Overcast
6:55 PM 46.4 °F 42.4 °F 40.3 °F 79% 29.79 in 10.0 mi NW 8.1 mph - N/A   Overcast
7:15 PM 46.4 °F 41.9 °F 40.5 °F 80% 29.80 in 10.0 mi WNW 9.2 mph - N/A   Overcast
7:35 PM 46.4 °F 43.5 °F 40.3 °F 79% 29.80 in 10.0 mi NW 5.8 mph - N/A   Overcast
7:55 PM 46.0 °F 43.1 °F 40.5 °F 81% 29.81 in 10.0 mi NW 5.8 mph - N/A   Overcast
8:15 PM 46.0 °F 43.1 °F 40.6 °F 81% 29.81 in 10.0 mi NW 5.8 mph - N/A   Overcast
8:35 PM 45.9 °F 43.6 °F 40.5 °F 81% 29.82 in 10.0 mi NW 4.6 mph - N/A   Overcast
8:55 PM 45.7 °F 44.4 °F 40.6 °F 83% 29.81 in 10.0 mi NNW 3.5 mph - N/A   Overcast
9:15 PM 45.9 °F 42.3 °F 40.5 °F 81% 29.82 in 10.0 mi NNW 6.9 mph - N/A   Overcast
9:35 PM 45.7 °F 42.7 °F 40.3 °F 81% 29.82 in 10.0 mi NW 5.8 mph - N/A   Overcast
9:55 PM 45.7 °F 43.4 °F 40.3 °F 81% 29.81 in 10.0 mi North 4.6 mph - N/A   Overcast
10:15 PM 45.5 °F 44.2 °F 40.1 °F 81% 29.80 in 10.0 mi North 3.5 mph - N/A   Overcast
10:35 PM 44.1 °F - 39.4 °F 84% 29.81 in 10.0 mi Calm Calm - N/A   Mostly Cloudy
10:55 PM 43.3 °F - 39.0 °F 85% 29.81 in 10.0 mi Calm Calm - N/A   Clear
11:15 PM 42.6 °F - 38.7 °F 86% 29.81 in 10.0 mi Calm Calm - N/A   Clear
11:35 PM 42.1 °F - 38.8 °F 88% 29.80 in 10.0 mi Calm Calm - N/A   Clear
11:55 PM 41.4 °F 39.4 °F 38.3 °F 89% 29.80 in 10.0 mi NNW 3.5 mph - N/A   Clear